Estación de San Rafael

Ultimos registro cada 15 minutos 93
Estación Fecha / Hora Temperatura Humedad Lluvia Velocidad Dirección Radiación Presion
93 San Rafael 04-05-2026 23:00 9,8 97,9 0 0 81 0,6 996,8
92 San Rafael 04-05-2026 22:45 10,1 97,8 0 0 81 0,6 996,6
91 San Rafael 04-05-2026 22:30 10,2 97,7 0 0 81 0,6 996,4
90 San Rafael 04-05-2026 22:15 10,1 97,5 0 0 81 0,6 996,6
89 San Rafael 04-05-2026 22:00 10,3 97,3 0 0 81 0,6 996,4
88 San Rafael 04-05-2026 21:45 10,5 97 0 0 81 0,6 996,6
87 San Rafael 04-05-2026 21:30 10,7 96,8 0 0 81 0,6 996,5
86 San Rafael 04-05-2026 21:15 11,1 96,6 0 0 81 0,6 996,4
85 San Rafael 04-05-2026 21:00 11,5 96,3 0 0 81 0,6 996,1
84 San Rafael 04-05-2026 20:45 11,7 96,2 0 0 81 0,6 996,2
83 San Rafael 04-05-2026 20:30 11,8 95,8 0 0 81 0,6 995,9
82 San Rafael 04-05-2026 20:15 12 95,6 0 0 81 0,6 996
81 San Rafael 04-05-2026 20:00 12,1 95,2 0 0 81 0,6 996,1
80 San Rafael 04-05-2026 19:45 12,1 94,6 0 0 81 0,6 996
79 San Rafael 04-05-2026 19:30 12,3 94,1 0 0 81 0,6 995,6
78 San Rafael 04-05-2026 19:15 12,4 93,3 0 0 81 0,6 995,5
77 San Rafael 04-05-2026 19:00 12,4 92,4 0 0 81 0,6 995,5
76 San Rafael 04-05-2026 18:45 12,5 91,1 0 0 81 0,6 995,5
75 San Rafael 04-05-2026 18:30 13,1 88,2 0 0 81 0,6 995,3
74 San Rafael 04-05-2026 18:15 14,3 85,1 0 0 81 0,6 995,6
73 San Rafael 04-05-2026 18:00 14,8 80,3 0 0 81 8,1 995,7
72 San Rafael 04-05-2026 17:45 16,5 72,2 0 0 81 26,9 995,6
71 San Rafael 04-05-2026 17:30 17,8 67,4 0 0 81 73,1 995,5
70 San Rafael 04-05-2026 17:15 18,9 64,2 0 0 81 139,4 995,7
69 San Rafael 04-05-2026 17:00 19 64,8 0 0 81 99,4 995,9
68 San Rafael 04-05-2026 16:45 18 69,5 0 0 81 288,1 995,7
67 San Rafael 04-05-2026 16:30 17,6 67,9 0 0 81 94,4 996,1
66 San Rafael 04-05-2026 16:15 17,8 66,4 0 0 81 145,6 996,1
65 San Rafael 04-05-2026 16:00 17,7 66,2 0 0 81 178,1 995,9
64 San Rafael 04-05-2026 15:45 17,5 68,5 0 0 81 139,4 996
63 San Rafael 04-05-2026 15:30 17,6 69,7 0 0 81 118,1 996,4
62 San Rafael 04-05-2026 15:15 17,6 68,8 0 0 81 141,9 996,5
61 San Rafael 04-05-2026 15:00 17,7 68,9 0 0 81 206,9 996,4
60 San Rafael 04-05-2026 14:45 17,7 69,1 0 0 81 233,1 996,7
59 San Rafael 04-05-2026 14:30 18 68 0 0 81 238,1 996,9
58 San Rafael 04-05-2026 14:15 18,6 66,4 0 0 80 305,6 996,9
57 San Rafael 04-05-2026 14:00 18,4 66,5 0 0 80 301,9 997,1
56 San Rafael 04-05-2026 13:45 18,3 68,7 0 0 81 339,4 997,5
55 San Rafael 04-05-2026 13:30 17,8 68,3 0 0 81 511,9 997,6
54 San Rafael 04-05-2026 13:15 17,7 71,4 0 0 80 409,4 997,8
53 San Rafael 04-05-2026 13:00 17,5 72,8 0 0 80 411,9 998
52 San Rafael 04-05-2026 12:45 16,1 77,1 0 0 80 325,6 998,3
51 San Rafael 04-05-2026 12:30 15,7 78,1 0 0 80 211,9 998,4
50 San Rafael 04-05-2026 12:15 15,4 80,9 0 0 80 229,4 998,6
49 San Rafael 04-05-2026 12:00 14,7 83,2 0 0 80 181,9 998,6
48 San Rafael 04-05-2026 11:45 14,6 83,2 0 0 73 178,1 998,9
47 San Rafael 04-05-2026 11:30 14,5 84,5 0 0 74 191,9 998,7
46 San Rafael 04-05-2026 11:15 13,8 86,5 0 0 74 166,9 998,6
45 San Rafael 04-05-2026 11:00 13,1 87,9 0 0 74 179,4 998,5
44 San Rafael 04-05-2026 10:45 12,6 90,9 0 0 59 179,4 998,7
43 San Rafael 04-05-2026 10:30 12,6 94,6 0 0 59 156,9 998,7
42 San Rafael 04-05-2026 10:15 11,8 96,3 0 0 59 134,4 998,6
41 San Rafael 04-05-2026 10:00 11,4 97,9 0 0 59 111,9 998,6
40 San Rafael 04-05-2026 09:45 10,8 98,8 0 0 59 108,1 998,5
39 San Rafael 04-05-2026 09:30 10,3 99,4 0 0 59 131,9 998,5
38 San Rafael 04-05-2026 09:15 9,8 99,8 0 0 59 124,4 998,3
37 San Rafael 04-05-2026 09:00 9,4 99,7 0 0 59 93,1 998,4
36 San Rafael 04-05-2026 08:45 9,2 100 0 0 59 73,1 998,4
35 San Rafael 04-05-2026 08:30 8,2 99,9 0 0 59 73,1 998
34 San Rafael 04-05-2026 08:15 7,5 99,8 0 0 59 50,6 997,9
33 San Rafael 04-05-2026 08:00 6,9 99,8 0 0 59 25,6 998
32 San Rafael 04-05-2026 07:45 6,5 99,8 0 0 59 16,9 997,9
31 San Rafael 04-05-2026 07:30 6,4 99,8 0 0 59 1,9 997,9
30 San Rafael 04-05-2026 07:15 6,5 99,7 0 0 59 0,6 997,9
29 San Rafael 04-05-2026 07:00 6,4 99,8 0 0 59 0,6 997,9
28 San Rafael 04-05-2026 06:45 6,2 99,6 0 0 59 0,6 997,8
27 San Rafael 04-05-2026 06:30 6,3 99,5 0 0 59 0,6 997,7
26 San Rafael 04-05-2026 06:15 6,4 99,4 0 0 59 0,6 997,7
25 San Rafael 04-05-2026 06:00 6,7 99,4 0 0 59 0,6 997,4
24 San Rafael 04-05-2026 05:45 7,1 99,3 0 0 59 0,6 997,3
23 San Rafael 04-05-2026 05:30 7,2 99,3 0 0 59 0,6 997,3
22 San Rafael 04-05-2026 05:15 8 99,1 0 0 59 0,6 997,3
21 San Rafael 04-05-2026 05:00 8,7 99,3 0 0 59 0,6 997,4
20 San Rafael 04-05-2026 04:45 8,9 99,1 0 0 59 0,6 997,3
19 San Rafael 04-05-2026 04:30 9,2 99,2 0 0 59 0,6 997,3
18 San Rafael 04-05-2026 04:15 9,4 98,9 0 0 59 0,6 997,5
17 San Rafael 04-05-2026 04:00 9,6 98,8 0 0 59 0,6 997,6
16 San Rafael 04-05-2026 03:45 9,8 98,9 0 0 59 0,6 997,5
15 San Rafael 04-05-2026 03:30 10 98,7 0 0 59 0,6 997,6
14 San Rafael 04-05-2026 03:15 10,1 98,7 0 0 59 0,6 997,7
13 San Rafael 04-05-2026 03:00 10,2 98,7 0 0 59 0,6 997,9
12 San Rafael 04-05-2026 02:45 10,4 98,6 0 0 59 0,6 998
11 San Rafael 04-05-2026 02:30 10,3 98,7 0 0 59 0,6 998,1
10 San Rafael 04-05-2026 02:15 10,4 98,5 0 0 59 0,6 998,4
9 San Rafael 04-05-2026 02:00 10,2 98,3 0 0 59 0,6 998,4
8 San Rafael 04-05-2026 01:45 10,3 98,2 0 0 59 0,6 998,6
7 San Rafael 04-05-2026 01:30 10,4 98,1 0 0 59 0,6 998,4
6 San Rafael 04-05-2026 01:15 10,4 98,1 0 0 59 0,6 998,6
5 San Rafael 04-05-2026 01:00 10,5 98 0 0 59 0,6 998,6
4 San Rafael 04-05-2026 00:45 10,5 97,9 0 0 59 0,6 998,4
3 San Rafael 04-05-2026 00:30 10,5 97,9 0 0 59 0,6 998,7
2 San Rafael 04-05-2026 00:15 10,6 97,6 0 0 59 0,6 999
1 San Rafael 04-05-2026 00:00 10,8 97,5 0 0 59 0,6 999,3